This is the latest recevied weather packets stored in our database for station/object W3EJE-13. If no packets are shown the sender has not sent any weather packets the latest 10 day(s).
| Time | Temp. | Humidity | Pressure | Rain* | Wind** | Luminosity | Snow |
|---|---|---|---|---|---|---|---|
| 1777908189 | 16.11° C | 57% | 1013.8 hPa | 0 mm | - | 258 W/m² | - |
| 1777907885 | 16.67° C | 57% | 1013.9 hPa | 0 mm | - | 510 W/m² | - |
| 1777907581 | 16.11° C | 57% | 1013.7 hPa | 0 mm | - | 739 W/m² | - |
| 1777907276 | 15.56° C | 57% | 1013.7 hPa | 0 mm | - | 766 W/m² | - |
| 1777906973 | 15° C | 59% | 1013.8 hPa | 0 mm | - | 788 W/m² | - |
| 1777906671 | 15° C | 59% | 1013.9 hPa | 0 mm | - | 431 W/m² | - |
| 1777906367 | 15° C | 58% | 1014.1 hPa | 0 mm | - | 141 W/m² | - |
| 1777906064 | 15.56° C | 57% | 1013.9 hPa | 0 mm | - | 254 W/m² | - |
| 1777905760 | 15.56° C | 57% | 1014.1 hPa | 0 mm | - | 338 W/m² | - |
| 1777905458 | 16.11° C | 56% | 1013.9 hPa | 0 mm | - | 312 W/m² | - |
| 1777905155 | 15.56° C | 57% | 1014.1 hPa | 0 mm | - | 692 W/m² | - |
| 1777904852 | 15.56° C | 57% | 1013.8 hPa | 0 mm | - | 688 W/m² | - |
| 1777904549 | 16.11° C | 58% | 1013.6 hPa | 0 mm | - | 632 W/m² | - |
| 1777904246 | 15.56° C | 58% | 1013.8 hPa | 0 mm | - | 757 W/m² | - |
| 1777903943 | 15.56° C | 57% | 1014.1 hPa | 0 mm | - | 737 W/m² | - |
| 1777903640 | 15.56° C | 57% | 1014.1 hPa | 0 mm | - | 646 W/m² | - |
| 1777903335 | 15° C | 59% | 1013.9 hPa | 0 mm | - | 627 W/m² | - |
| 1777903033 | 14.44° C | 60% | 1014.1 hPa | 0 mm | - | 489 W/m² | - |
| 1777902729 | 13.89° C | 59% | 1014.2 hPa | 0 mm | - | 114 W/m² | - |
| 1777902426 | 14.44° C | 59% | 1014.3 hPa | 0 mm | - | 127 W/m² | - |
| 1777902122 | 14.44° C | 61% | 1014.5 hPa | 0 mm | - | 199 W/m² | - |
| 1777901821 | 14.44° C | 63% | 1014.3 hPa | 0 mm | - | 225 W/m² | - |
| 1777901518 | 13.33° C | 65% | 1014.6 hPa | 0 mm | - | 144 W/m² | - |
| 1777901216 | 12.78° C | 63% | 1014.5 hPa | 0 mm | - | 79 W/m² | - |
| 1777900913 | 12.78° C | 65% | 1014.3 hPa | 0 mm | - | 63 W/m² | - |
* Rain latest hour (hover to see other rain measurements)
** Current wind speed in m/s (hover to see current wind gust speed)